TGL971C LFBO-LFPG

Flight info

Callsign TGL971C
Flight time 0h 57m
Altitude 34000
Route FISTO DCT POI/N0401F300 DCT PEPAX UT182 KEPER
Aircraft A320/M-SDE3FGHIRWY/LB1

Departure

Time 2026-05-04 20:15
Airport Toulouse-Blagnac Airport (LFBO)

Arrival

Time 2026-05-04 21:12
Airport Charles de Gaulle International Airport (LFPG)
Time Latitude Longitude Altitude Speed Heading
2026-05-04 19:48 43.62838 1.37638 485 ft 0 kts 53°
2026-05-04 19:59 43.62838 1.37637 494 ft 0 kts 53°
2026-05-04 20:05 43.62829 1.37621 486 ft 3 kts 58°
2026-05-04 20:05 43.62818 1.37591 488 ft 3 kts 74°
2026-05-04 20:05 43.62815 1.37560 484 ft 3 kts 108°
2026-05-04 20:06 43.62823 1.37541 488 ft 0 kts 142°
2026-05-04 20:09 43.62822 1.37542 467 ft 0 kts 142°
2026-05-04 20:09 43.62815 1.37549 482 ft 2 kts 142°
2026-05-04 20:09 43.62799 1.37566 484 ft 4 kts 143°
2026-05-04 20:09 43.62776 1.37591 492 ft 5 kts 142°
2026-05-04 20:10 43.62746 1.37623 489 ft 6 kts 144°
2026-05-04 20:10 43.62709 1.37625 492 ft 6 kts 225°
2026-05-04 20:10 43.62676 1.37565 491 ft 9 kts 233°
2026-05-04 20:10 43.62639 1.37487 492 ft 10 kts 239°
2026-05-04 20:11 43.62595 1.37400 492 ft 11 kts 233°
2026-05-04 20:11 43.62531 1.37339 484 ft 12 kts 176°
2026-05-04 20:11 43.62466 1.37397 491 ft 10 kts 144°
2026-05-04 20:11 43.62415 1.37448 492 ft 8 kts 143°
2026-05-04 20:12 43.62377 1.37488 491 ft 6 kts 142°
2026-05-04 20:12 43.62349 1.37517 489 ft 6 kts 143°
2026-05-04 20:12 43.62304 1.37564 491 ft 11 kts 143°
2026-05-04 20:12 43.62238 1.37632 489 ft 11 kts 144°
2026-05-04 20:13 43.62177 1.37670 491 ft 8 kts 184°
2026-05-04 20:13 43.62136 1.37625 488 ft 8 kts 232°
2026-05-04 20:13 43.62103 1.37565 490 ft 8 kts 232°
2026-05-04 20:13 43.62078 1.37497 491 ft 8 kts 278°
2026-05-04 20:14 43.62096 1.37470 484 ft 0 kts 321°
2026-05-04 20:14 43.62169 1.37392 489 ft 47 kts 322°
2026-05-04 20:14 43.62626 1.36914 487 ft 114 kts 323°
2026-05-04 20:14 43.63393 1.36110 627 ft 153 kts 319°
2026-05-04 20:15 43.64228 1.35271 1410 ft 147 kts 320°
2026-05-04 20:15 43.65040 1.34417 2031 ft 153 kts 319°
2026-05-04 20:15 43.65917 1.33431 2400 ft 171 kts 318°
2026-05-04 20:15 43.66892 1.32315 2734 ft 192 kts 319°
2026-05-04 20:16 43.67982 1.31107 3101 ft 212 kts 320°
2026-05-04 20:16 43.69215 1.29767 3473 ft 239 kts 320°
2026-05-04 20:16 43.70555 1.28300 4179 ft 250 kts 320°
2026-05-04 20:16 43.71987 1.26887 5047 ft 257 kts 333°
2026-05-04 20:17 43.73733 1.26223 5941 ft 264 kts 347°
2026-05-04 20:17 43.75536 1.25679 6855 ft 267 kts 344°
2026-05-04 20:17 43.77358 1.25146 7756 ft 270 kts 351°
2026-05-04 20:17 43.79274 1.25016 8468 ft 281 kts 356°
2026-05-04 20:18 43.81250 1.24960 9302 ft 286 kts 356°
2026-05-04 20:18 43.83256 1.24916 10115 ft 291 kts 356°
2026-05-04 20:18 43.85357 1.24843 10464 ft 314 kts 356°
2026-05-04 20:18 43.87610 1.24749 10866 ft 331 kts 356°
2026-05-04 20:19 43.89944 1.24655 11545 ft 339 kts 356°
2026-05-04 20:19 43.92321 1.24566 12269 ft 344 kts 356°
2026-05-04 20:19 43.94734 1.24476 12990 ft 350 kts 355°
2026-05-04 20:19 43.97164 1.24070 13680 ft 354 kts 348°
2026-05-04 20:20 43.99603 1.23483 14308 ft 359 kts 347°
2026-05-04 20:20 44.02077 1.22866 14931 ft 364 kts 347°
2026-05-04 20:20 44.04553 1.22240 15513 ft 369 kts 347°
2026-05-04 20:20 44.07100 1.21594 16104 ft 375 kts 347°
2026-05-04 20:21 44.09683 1.20938 16708 ft 380 kts 348°
2026-05-04 20:21 44.12300 1.20278 17309 ft 385 kts 348°
2026-05-04 20:21 44.17638 1.18941 18472 ft 395 kts 348°
2026-05-04 20:22 44.20351 1.18261 18997 ft 399 kts 348°
2026-05-04 20:22 44.23107 1.17570 19530 ft 403 kts 348°
2026-05-04 20:22 44.25883 1.16886 20056 ft 407 kts 349°
2026-05-04 20:22 44.28689 1.16203 20566 ft 412 kts 349°
2026-05-04 20:23 44.31525 1.15518 21077 ft 416 kts 349°
2026-05-04 20:23 44.34390 1.14832 21581 ft 420 kts 349°
2026-05-04 20:23 44.37283 1.14136 22092 ft 423 kts 349°
2026-05-04 20:23 44.40199 1.13428 22607 ft 427 kts 349°
2026-05-04 20:24 44.43136 1.12710 23076 ft 431 kts 349°
2026-05-04 20:24 44.46107 1.11986 23529 ft 435 kts 349°
2026-05-04 20:24 44.49107 1.11251 23913 ft 439 kts 349°
2026-05-04 20:24 44.52169 1.10496 24315 ft 443 kts 349°
2026-05-04 20:25 44.55169 1.09753 24719 ft 445 kts 349°
2026-05-04 20:25 44.58232 1.08995 25114 ft 448 kts 349°
2026-05-04 20:25 44.61315 1.08234 25505 ft 451 kts 349°
2026-05-04 20:25 44.64421 1.07468 25872 ft 455 kts 349°
2026-05-04 20:26 44.66530 1.06948 26127 ft 457 kts 349°
2026-05-04 20:26 44.70696 1.05924 26631 ft 461 kts 349°
2026-05-04 20:26 44.73864 1.05147 26995 ft 464 kts 349°
2026-05-04 20:26 44.76017 1.04617 27252 ft 466 kts 349°
2026-05-04 20:27 44.79218 1.03827 27611 ft 468 kts 349°
2026-05-04 20:27 44.82436 1.03031 27980 ft 471 kts 349°
2026-05-04 20:27 44.85674 1.02228 28341 ft 474 kts 349°
2026-05-04 20:27 44.88931 1.01418 28693 ft 476 kts 349°
2026-05-04 20:28 44.92200 1.00605 29045 ft 479 kts 349°
2026-05-04 20:28 44.95495 0.99783 29394 ft 482 kts 349°
2026-05-04 20:28 44.98802 0.98952 29734 ft 484 kts 349°
2026-05-04 20:28 45.02131 0.98120 30043 ft 488 kts 349°
2026-05-04 20:29 45.05482 0.97283 30310 ft 490 kts 349°
2026-05-04 20:29 45.08851 0.96442 30593 ft 492 kts 349°
2026-05-04 20:29 45.12227 0.95598 30878 ft 494 kts 349°
2026-05-04 20:29 45.15615 0.94747 31161 ft 495 kts 348°
2026-05-04 20:30 45.19012 0.93893 31461 ft 496 kts 348°
2026-05-04 20:30 45.22367 0.93048 31808 ft 496 kts 349°
2026-05-04 20:30 45.25764 0.92193 32181 ft 495 kts 348°
2026-05-04 20:30 45.29153 0.91338 32574 ft 494 kts 348°
2026-05-04 20:31 45.32532 0.90483 32979 ft 493 kts 348°
2026-05-04 20:31 45.35902 0.89632 33386 ft 491 kts 348°
2026-05-04 20:31 45.39265 0.88784 33789 ft 490 kts 348°
2026-05-04 20:31 45.42620 0.87935 33930 ft 488 kts 348°
2026-05-04 20:32 45.49196 0.86268 33949 ft 475 kts 348°
2026-05-04 20:32 45.55692 0.84616 33950 ft 474 kts 348°
2026-05-04 20:33 45.62183 0.82961 33942 ft 474 kts 348°
2026-05-04 20:33 45.68745 0.82385 33946 ft 476 kts
2026-05-04 20:34 45.75328 0.83476 33940 ft 476 kts
2026-05-04 20:34 45.81909 0.84619 33940 ft 476 kts
2026-05-04 20:35 45.88492 0.85747 33934 ft 476 kts
2026-05-04 20:35 45.95080 0.86868 33931 ft 477 kts
2026-05-04 20:36 46.01668 0.87997 33924 ft 477 kts
2026-05-04 20:36 46.08219 0.89119 33919 ft 477 kts
2026-05-04 20:37 46.14818 0.90244 33921 ft 478 kts
2026-05-04 20:37 46.21425 0.91374 33918 ft 478 kts
2026-05-04 20:38 46.28037 0.92520 33914 ft 479 kts
2026-05-04 20:38 46.34650 0.93661 33913 ft 479 kts
2026-05-04 20:39 46.41277 0.94804 33912 ft 480 kts
2026-05-04 20:39 46.47908 0.95949 33916 ft 480 kts
2026-05-04 20:40 46.54545 0.97101 33909 ft 480 kts
2026-05-04 20:40 46.61188 0.98265 33916 ft 481 kts
2026-05-04 20:41 46.67834 0.99423 33919 ft 481 kts
2026-05-04 20:41 46.74481 1.00583 33922 ft 481 kts
2026-05-04 20:42 46.81133 1.01759 33922 ft 481 kts
2026-05-04 20:42 46.87782 1.02929 33925 ft 481 kts
2026-05-04 20:43 46.94434 1.04100 33926 ft 481 kts
2026-05-04 20:43 47.01080 1.05277 33928 ft 481 kts
2026-05-04 20:44 47.07718 1.06467 33927 ft 480 kts
2026-05-04 20:44 47.14357 1.07657 33928 ft 480 kts
2026-05-04 20:45 47.20992 1.08846 33929 ft 480 kts
2026-05-04 20:45 47.24255 1.09428 33744 ft 476 kts
2026-05-04 20:45 47.27525 1.10012 33466 ft 472 kts
2026-05-04 20:46 47.30775 1.10596 33153 ft 468 kts
2026-05-04 20:46 47.33993 1.11170 32571 ft 466 kts
2026-05-04 20:46 47.37208 1.11741 32006 ft 464 kts
2026-05-04 20:46 47.40406 1.12311 31443 ft 462 kts
2026-05-04 20:47 47.43589 1.12881 30894 ft 460 kts
2026-05-04 20:47 47.46761 1.13452 30347 ft 458 kts
2026-05-04 20:47 47.49958 1.14031 29769 ft 456 kts
2026-05-04 20:47 47.53098 1.14602 29238 ft 452 kts
2026-05-04 20:48 47.56157 1.15159 28736 ft 447 kts
2026-05-04 20:48 47.59229 1.15719 28253 ft 442 kts
2026-05-04 20:48 47.62267 1.16272 27745 ft 438 kts
2026-05-04 20:48 47.65273 1.16816 27257 ft 433 kts
2026-05-04 20:49 47.68251 1.17354 26768 ft 429 kts
2026-05-04 20:49 47.71199 1.17890 26264 ft 425 kts
2026-05-04 20:49 47.74119 1.18423 25777 ft 421 kts
2026-05-04 20:49 47.77015 1.18952 25263 ft 418 kts
2026-05-04 20:50 47.79889 1.19477 24761 ft 415 kts
2026-05-04 20:50 47.82744 1.19999 24326 ft 410 kts
2026-05-04 20:50 47.85565 1.20514 23793 ft 408 kts
2026-05-04 20:50 47.88351 1.21026 23434 ft 401 kts
2026-05-04 20:51 47.91112 1.21533 22876 ft 398 kts
2026-05-04 20:51 47.93844 1.22035 22365 ft 394 kts
2026-05-04 20:51 47.96553 1.22534 21882 ft 391 kts
2026-05-04 20:51 47.99240 1.23029 21416 ft 387 kts
2026-05-04 20:52 48.01903 1.23519 20950 ft 384 kts
2026-05-04 20:52 48.04538 1.24003 20515 ft 380 kts
2026-05-04 20:52 48.07147 1.24483 20041 ft 374 kts
2026-05-04 20:52 48.09715 1.24954 19277 ft 369 kts
2026-05-04 20:53 48.12226 1.25411 18793 ft 360 kts
2026-05-04 20:53 48.14709 1.25867 18353 ft 359 kts
2026-05-04 20:53 48.17182 1.26330 17873 ft 358 kts
2026-05-04 20:53 48.19641 1.26792 17431 ft 355 kts
2026-05-04 20:54 48.22077 1.27247 17000 ft 352 kts
2026-05-04 20:54 48.24469 1.27925 16590 ft 348 kts 20°
2026-05-04 20:54 48.26650 1.29326 16249 ft 343 kts 25°
2026-05-04 20:54 48.28807 1.30798 15915 ft 339 kts 25°
2026-05-04 20:55 48.30940 1.32262 15587 ft 335 kts 25°
2026-05-04 20:55 48.33050 1.33711 15262 ft 332 kts 25°
2026-05-04 20:55 48.35138 1.35147 14941 ft 329 kts 25°
2026-05-04 20:55 48.37209 1.36569 14619 ft 326 kts 25°
2026-05-04 20:56 48.39263 1.37978 14317 ft 323 kts 25°
2026-05-04 20:56 48.41300 1.39378 14007 ft 321 kts 25°
2026-05-04 20:56 48.43318 1.40770 13691 ft 318 kts 25°
2026-05-04 20:56 48.45325 1.42159 13350 ft 316 kts 25°
2026-05-04 20:57 48.47314 1.43534 13007 ft 313 kts 25°
2026-05-04 20:57 48.49287 1.44900 12662 ft 311 kts 25°
2026-05-04 20:57 48.51249 1.46255 12322 ft 309 kts 25°
2026-05-04 20:57 48.53191 1.47599 11994 ft 306 kts 25°
2026-05-04 20:58 48.55120 1.48941 11665 ft 304 kts 25°
2026-05-04 20:58 48.57033 1.50275 11343 ft 302 kts 25°
2026-05-04 20:58 48.58924 1.51614 11028 ft 299 kts 26°
2026-05-04 20:58 48.60777 1.52972 10931 ft 295 kts 27°
2026-05-04 20:59 48.62618 1.54341 10948 ft 295 kts 27°
2026-05-04 20:59 48.64459 1.55714 10943 ft 295 kts 27°
2026-05-04 20:59 48.66299 1.57083 10948 ft 294 kts 27°
2026-05-04 20:59 48.68135 1.58446 10949 ft 294 kts 27°
2026-05-04 21:00 48.69973 1.59800 10955 ft 294 kts 27°
2026-05-04 21:00 48.71651 1.61512 10838 ft 290 kts 46°
2026-05-04 21:00 48.72900 1.63887 10610 ft 289 kts 54°
2026-05-04 21:00 48.74087 1.66341 10367 ft 288 kts 54°
2026-05-04 21:01 48.75268 1.68787 10063 ft 287 kts 54°
2026-05-04 21:01 48.76444 1.71220 9741 ft 285 kts 54°
2026-05-04 21:01 48.77612 1.73639 9399 ft 283 kts 54°
2026-05-04 21:01 48.78774 1.76040 9067 ft 282 kts 54°
2026-05-04 21:02 48.79932 1.78436 8724 ft 281 kts 54°
2026-05-04 21:02 48.81081 1.80815 8382 ft 278 kts 54°
2026-05-04 21:02 48.82213 1.83163 8056 ft 274 kts 54°
2026-05-04 21:02 48.83313 1.85453 7733 ft 270 kts 54°
2026-05-04 21:03 48.84414 1.87747 7397 ft 267 kts 54°
2026-05-04 21:03 48.85503 1.90014 7064 ft 264 kts 54°
2026-05-04 21:03 48.86589 1.92281 6752 ft 261 kts 55°
2026-05-04 21:03 48.87650 1.94497 6434 ft 257 kts 55°
2026-05-04 21:04 48.88694 1.96680 6146 ft 253 kts 54°
2026-05-04 21:04 48.89715 1.98810 5896 ft 246 kts 54°
2026-05-04 21:04 48.90699 2.00864 5635 ft 241 kts 54°
2026-05-04 21:04 48.91683 2.02926 5376 ft 235 kts 55°
2026-05-04 21:05 48.92634 2.04926 5132 ft 232 kts 55°
2026-05-04 21:05 48.93572 2.06900 5017 ft 230 kts 54°
2026-05-04 21:05 48.94512 2.08873 5008 ft 230 kts 54°
2026-05-04 21:05 48.95452 2.10845 5010 ft 230 kts 54°
2026-05-04 21:06 48.96387 2.12822 5008 ft 230 kts 57°
2026-05-04 21:06 48.96973 2.15063 5003 ft 230 kts 82°
2026-05-04 21:06 48.97121 2.17481 5008 ft 230 kts 85°
2026-05-04 21:06 48.97256 2.19891 4983 ft 224 kts 85°
2026-05-04 21:07 48.97389 2.22226 4776 ft 220 kts 85°
2026-05-04 21:07 48.97519 2.24513 4505 ft 212 kts 85°
2026-05-04 21:07 48.97642 2.26700 4232 ft 202 kts 85°
2026-05-04 21:07 48.97759 2.28772 3974 ft 190 kts 85°
2026-05-04 21:08 48.97868 2.30706 3718 ft 178 kts 84°
2026-05-04 21:08 48.97970 2.32522 3486 ft 167 kts 84°
2026-05-04 21:08 48.98065 2.34231 3286 ft 156 kts 84°
2026-05-04 21:08 48.98155 2.35839 3073 ft 149 kts 84°
2026-05-04 21:09 48.98241 2.37393 2873 ft 146 kts 84°
2026-05-04 21:09 48.98326 2.38922 2680 ft 145 kts 84°
2026-05-04 21:09 48.98411 2.40445 2484 ft 144 kts 84°
2026-05-04 21:09 48.98495 2.41964 2292 ft 144 kts 84°
2026-05-04 21:10 48.98578 2.43480 2100 ft 144 kts 84°
2026-05-04 21:10 48.98661 2.44997 1897 ft 144 kts 84°
2026-05-04 21:10 48.98738 2.46513 1690 ft 143 kts 84°
2026-05-04 21:10 48.98821 2.48022 1483 ft 143 kts 83°
2026-05-04 21:11 48.98904 2.49532 1277 ft 143 kts 84°
2026-05-04 21:11 48.98986 2.51043 1056 ft 144 kts 84°
2026-05-04 21:11 48.99070 2.52564 841 ft 145 kts 84°
2026-05-04 21:11 48.99149 2.54091 647 ft 145 kts 84°
2026-05-04 21:12 48.99236 2.55619 471 ft 144 kts 82°
2026-05-04 21:12 48.99298 2.56625 393 ft 144 kts 83°
2026-05-04 21:12 48.99384 2.58086 357 ft 125 kts 86°
2026-05-04 21:12 48.99419 2.58936 352 ft 34 kts 85°
2026-05-04 21:13 48.99463 2.59242 353 ft 28 kts 66°
2026-05-04 21:13 48.99535 2.59485 358 ft 21 kts 69°
2026-05-04 21:13 48.99578 2.59624 358 ft 9 kts 63°
2026-05-04 21:13 48.99584 2.59640 355 ft 0 kts 60°
2026-05-04 21:14 48.99603 2.59672 357 ft 8 kts 39°
2026-05-04 21:15 48.99682 2.59689 354 ft 16 kts 356°
2026-05-04 21:15 48.99806 2.59675 356 ft 20 kts 354°
2026-05-04 21:15 48.99905 2.59660 363 ft 12 kts 354°
2026-05-04 21:15 48.99995 2.59649 354 ft 14 kts 355°
2026-05-04 21:16 49.00099 2.59637 354 ft 16 kts 355°
2026-05-04 21:16 49.00220 2.59623 354 ft 18 kts 355°
2026-05-04 21:16 49.00345 2.59607 354 ft 17 kts 356°
2026-05-04 21:16 49.00452 2.59595 354 ft 15 kts 355°
2026-05-04 21:17 49.00561 2.59581 358 ft 16 kts 355°
2026-05-04 21:17 49.00667 2.59568 359 ft 14 kts 356°
2026-05-04 21:17 49.00771 2.59555 354 ft 16 kts 353°
2026-05-04 21:17 49.00885 2.59541 354 ft 17 kts 355°
2026-05-04 21:18 49.00975 2.59523 354 ft 13 kts 339°
2026-05-04 21:18 49.01006 2.59405 354 ft 13 kts 265°
2026-05-04 21:18 49.00993 2.59258 356 ft 15 kts 266°
2026-05-04 21:18 49.00981 2.59093 361 ft 17 kts 261°
2026-05-04 21:19 49.00954 2.58918 358 ft 18 kts 260°
2026-05-04 21:19 49.00940 2.58727 356 ft 17 kts 264°
2026-05-04 21:19 49.00932 2.58566 354 ft 15 kts 266°
2026-05-04 21:19 49.00925 2.58415 357 ft 14 kts 264°
2026-05-04 21:20 49.00916 2.58253 354 ft 16 kts 266°
2026-05-04 21:20 49.00907 2.58086 354 ft 15 kts 265°
2026-05-04 21:20 49.00899 2.57920 354 ft 17 kts 265°
2026-05-04 21:20 49.00889 2.57745 354 ft 13 kts 265°
2026-05-04 21:21 49.00880 2.57595 361 ft 15 kts 265°
2026-05-04 21:21 49.00872 2.57427 354 ft 17 kts 264°
2026-05-04 21:21 49.00863 2.57289 357 ft 11 kts 264°
2026-05-04 21:21 49.00856 2.57167 360 ft 12 kts 266°
2026-05-04 21:22 49.00849 2.57024 357 ft 14 kts 265°
2026-05-04 21:22 49.00841 2.56864 354 ft 16 kts 264°
2026-05-04 21:22 49.00831 2.56693 354 ft 15 kts 265°
2026-05-04 21:22 49.00823 2.56539 358 ft 13 kts 265°
2026-05-04 21:23 49.00790 2.56435 357 ft 8 kts 178°
2026-05-04 21:23 49.00729 2.56450 354 ft 9 kts 174°
2026-05-04 21:23 49.00664 2.56475 354 ft 10 kts 147°
2026-05-04 21:23 49.00635 2.56570 361 ft 10 kts 90°
2026-05-04 21:24 49.00635 2.56596 361 ft 0 kts 90°
2026-05-04 21:24 49.00625 2.56597 358 ft 6 kts 177°
2026-05-04 21:24 49.00581 2.56582 354 ft 5 kts 171°
2026-05-04 21:24 49.00560 2.56591 360 ft 0 kts 164°